ASA7004 PAJN-PANC

Flight info

Callsign ASA7004
Flight time 1h 32m
Altitude 38000
Route CHLKT2 ALATY JOH WITTI5
Aircraft B737/M-SDE2E3FGHIRWXY/LB1

Departure

Time 2026-05-03 21:31
Airport Juneau International Airport (PAJN)

Arrival

Time 2026-05-03 23:03
Airport Ted Stevens Anchorage International Airport (PANC)
Time Latitude Longitude Altitude Speed Heading
2026-05-03 21:17 58.35828 -134.58301 33 ft 0 kts
2026-05-03 21:24 58.35819 -134.58301 33 ft 4 kts
2026-05-03 21:24 58.35793 -134.58301 33 ft 4 kts
2026-05-03 21:25 58.35765 -134.58302 32 ft 4 kts
2026-05-03 21:25 58.35740 -134.58302 33 ft 2 kts
2026-05-03 21:25 58.35738 -134.58302 33 ft 0 kts
2026-05-03 21:27 58.35740 -134.58302 32 ft 3 kts
2026-05-03 21:28 58.35782 -134.58370 33 ft 12 kts 283°
2026-05-03 21:28 58.35790 -134.58549 33 ft 12 kts 255°
2026-05-03 21:28 58.35758 -134.58690 33 ft 11 kts 266°
2026-05-03 21:28 58.35776 -134.58854 33 ft 16 kts 284°
2026-05-03 21:29 58.35811 -134.59092 33 ft 21 kts 286°
2026-05-03 21:29 58.35853 -134.59385 33 ft 24 kts 284°
2026-05-03 21:29 58.35872 -134.59515 33 ft 7 kts 287°
2026-05-03 21:29 58.35865 -134.59624 32 ft 9 kts 236°
2026-05-03 21:30 58.35812 -134.59667 34 ft 7 kts 192°
2026-05-03 21:30 58.35779 -134.59653 34 ft 3 kts 136°
2026-05-03 21:30 58.35774 -134.59627 34 ft 0 kts 103°
2026-05-03 21:31 58.35717 -134.59203 35 ft 86 kts 104°
2026-05-03 21:31 58.35454 -134.57489 216 ft 169 kts 107°
2026-05-03 21:31 58.35100 -134.55220 1451 ft 179 kts 107°
2026-05-03 21:31 58.35031 -134.52951 2343 ft 185 kts 71°
2026-05-03 21:32 58.35930 -134.50981 2737 ft 221 kts 26°
2026-05-03 21:32 58.37477 -134.50631 3309 ft 238 kts 345°
2026-05-03 21:32 58.38940 -134.52329 3802 ft 260 kts 308°
2026-05-03 21:32 58.39928 -134.55285 4959 ft 264 kts 298°
2026-05-03 21:33 58.40817 -134.58242 6567 ft 254 kts 297°
2026-05-03 21:33 58.41701 -134.61187 7739 ft 256 kts 297°
2026-05-03 21:33 58.42575 -134.64128 8911 ft 256 kts 297°
2026-05-03 21:33 58.43462 -134.67106 10030 ft 255 kts 298°
2026-05-03 21:34 58.44340 -134.70048 11126 ft 258 kts 297°
2026-05-03 21:34 58.45237 -134.73088 12010 ft 266 kts 297°
2026-05-03 21:34 58.46151 -134.76182 13006 ft 269 kts 297°
2026-05-03 21:34 58.47077 -134.79315 14009 ft 273 kts 297°
2026-05-03 21:35 58.48007 -134.82462 14870 ft 277 kts 297°
2026-05-03 21:35 58.48962 -134.85696 15786 ft 280 kts 297°
2026-05-03 21:35 58.49926 -134.88958 16712 ft 283 kts 297°
2026-05-03 21:35 58.50900 -134.92261 17601 ft 286 kts 297°
2026-05-03 21:36 58.51882 -134.95592 18497 ft 290 kts 297°
2026-05-03 21:36 58.52882 -134.98987 19261 ft 295 kts 297°
2026-05-03 21:36 58.53892 -135.02423 20056 ft 297 kts 296°
2026-05-03 21:36 58.54907 -135.05878 20885 ft 299 kts 296°
2026-05-03 21:37 58.55930 -135.09367 21686 ft 302 kts 296°
2026-05-03 21:37 58.56949 -135.12848 22453 ft 305 kts 296°
2026-05-03 21:37 58.57991 -135.16412 23252 ft 308 kts 296°
2026-05-03 21:37 58.59056 -135.20060 24030 ft 311 kts 296°
2026-05-03 21:38 58.60106 -135.23663 24608 ft 316 kts 296°
2026-05-03 21:38 58.61182 -135.27364 25215 ft 319 kts 295°
2026-05-03 21:38 58.62265 -135.31089 25941 ft 319 kts 295°
2026-05-03 21:38 58.63345 -135.34809 26657 ft 320 kts 295°
2026-05-03 21:39 58.64428 -135.38550 27317 ft 322 kts 295°
2026-05-03 21:39 58.65522 -135.42334 27970 ft 324 kts 295°
2026-05-03 21:39 58.66621 -135.46137 28655 ft 327 kts 295°
2026-05-03 21:39 58.67721 -135.49955 29329 ft 327 kts 294°
2026-05-03 21:40 58.68830 -135.53809 29985 ft 328 kts 294°
2026-05-03 21:40 58.69935 -135.57656 30583 ft 330 kts 294°
2026-05-03 21:40 58.71051 -135.61546 31065 ft 333 kts 294°
2026-05-03 21:40 58.72171 -135.65460 31557 ft 335 kts 294°
2026-05-03 21:41 58.73281 -135.69343 32072 ft 335 kts 294°
2026-05-03 21:41 58.74407 -135.73290 32555 ft 337 kts 294°
2026-05-03 21:41 58.75544 -135.77274 32951 ft 340 kts 294°
2026-05-03 21:41 58.76691 -135.81289 33379 ft 341 kts 293°
2026-05-03 21:42 58.77831 -135.85317 33785 ft 343 kts 293°
2026-05-03 21:42 58.78974 -135.89358 34114 ft 344 kts 293°
2026-05-03 21:42 58.80119 -135.93409 34493 ft 345 kts 293°
2026-05-03 21:42 58.81256 -135.97436 34787 ft 346 kts 293°
2026-05-03 21:43 58.82409 -136.01527 35103 ft 348 kts 293°
2026-05-03 21:43 58.83564 -136.05636 35444 ft 349 kts 292°
2026-05-03 21:43 58.84727 -136.09780 35734 ft 351 kts 292°
2026-05-03 21:43 58.85891 -136.13934 36019 ft 352 kts 292°
2026-05-03 21:44 58.87061 -136.18115 36316 ft 353 kts 292°
2026-05-03 21:44 58.88228 -136.22295 36575 ft 355 kts 292°
2026-05-03 21:44 58.89390 -136.26465 36837 ft 355 kts 292°
2026-05-03 21:44 58.90565 -136.30687 37047 ft 357 kts 292°
2026-05-03 21:45 58.91741 -136.34915 37329 ft 356 kts 293°
2026-05-03 21:45 58.92842 -136.39200 37553 ft 356 kts 292°
2026-05-03 21:45 58.94006 -136.43460 37686 ft 360 kts 293°
2026-05-03 21:45 58.95263 -136.47683 37875 ft 361 kts 295°
2026-05-03 21:46 58.96501 -136.51876 38276 ft 357 kts 293°
2026-05-03 21:46 58.97669 -136.56133 38362 ft 361 kts 292°
2026-05-03 21:46 59.00011 -136.64846 38398 ft 370 kts 292°
2026-05-03 21:47 59.02426 -136.73746 38389 ft 373 kts 292°
2026-05-03 21:47 59.04873 -136.82603 38411 ft 371 kts 293°
2026-05-03 21:48 59.07291 -136.91497 38404 ft 375 kts 292°
2026-05-03 21:48 59.09306 -136.99036 38375 ft 376 kts 294°
2026-05-03 21:49 59.11778 -137.07937 38378 ft 375 kts 290°
2026-05-03 21:49 59.14107 -137.17034 38362 ft 375 kts 292°
2026-05-03 21:50 59.16516 -137.26059 38352 ft 374 kts 292°
2026-05-03 21:50 59.18915 -137.35037 38354 ft 373 kts 292°
2026-05-03 21:51 59.21305 -137.44045 38357 ft 373 kts 292°
2026-05-03 21:51 59.23681 -137.53043 38351 ft 373 kts 292°
2026-05-03 21:52 59.26052 -137.62050 38349 ft 373 kts 291°
2026-05-03 21:52 59.28402 -137.71018 38401 ft 374 kts 291°
2026-05-03 21:53 59.30772 -137.80113 38348 ft 374 kts 291°
2026-05-03 21:53 59.33123 -137.89177 38353 ft 373 kts 291°
2026-05-03 21:54 59.35459 -137.98228 38384 ft 373 kts 291°
2026-05-03 21:54 59.37802 -138.07315 38393 ft 373 kts 291°
2026-05-03 21:55 59.40124 -138.16357 38392 ft 373 kts 291°
2026-05-03 21:55 59.42361 -138.25569 38398 ft 371 kts 285°
2026-05-03 21:56 59.43951 -138.35178 38399 ft 370 kts 282°
2026-05-03 21:56 59.45490 -138.44851 38384 ft 370 kts 282°
2026-05-03 21:57 59.47021 -138.54438 38385 ft 369 kts 282°
2026-05-03 21:57 59.48559 -138.64101 38407 ft 368 kts 282°
2026-05-03 21:58 59.50080 -138.73664 38382 ft 368 kts 282°
2026-05-03 21:58 59.51603 -138.83291 38379 ft 368 kts 282°
2026-05-03 21:59 59.53151 -138.92890 38445 ft 368 kts 282°
2026-05-03 21:59 59.54667 -139.02505 38385 ft 367 kts 282°
2026-05-03 22:00 59.56148 -139.12155 38373 ft 366 kts 281°
2026-05-03 22:00 59.57621 -139.21770 38375 ft 367 kts 282°
2026-05-03 22:01 59.59096 -139.31354 38359 ft 368 kts 282°
2026-05-03 22:01 59.60581 -139.41040 38359 ft 368 kts 282°
2026-05-03 22:02 59.62057 -139.50726 38353 ft 368 kts 281°
2026-05-03 22:02 59.63522 -139.60406 38395 ft 368 kts 281°
2026-05-03 22:03 59.64987 -139.70133 38379 ft 368 kts 281°
2026-05-03 22:03 59.66439 -139.79836 38373 ft 367 kts 280°
2026-05-03 22:04 59.67874 -139.89471 38378 ft 367 kts 280°
2026-05-03 22:04 59.69307 -139.99154 38375 ft 367 kts 280°
2026-05-03 22:05 59.70737 -140.08871 38358 ft 366 kts 280°
2026-05-03 22:05 59.72157 -140.18580 38358 ft 366 kts 280°
2026-05-03 22:06 59.73567 -140.28277 38361 ft 367 kts 279°
2026-05-03 22:06 59.74964 -140.37949 38355 ft 367 kts 279°
2026-05-03 22:07 59.76363 -140.47682 38356 ft 367 kts 279°
2026-05-03 22:07 59.77755 -140.57427 38348 ft 366 kts 279°
2026-05-03 22:08 59.79136 -140.67157 38354 ft 366 kts 279°
2026-05-03 22:08 59.80512 -140.76909 38336 ft 367 kts 279°
2026-05-03 22:09 59.81883 -140.86689 38337 ft 367 kts 279°
2026-05-03 22:10 59.83915 -141.01302 38342 ft 367 kts 279°
2026-05-03 22:10 59.85270 -141.11108 38329 ft 367 kts 279°
2026-05-03 22:11 59.86618 -141.20918 38338 ft 367 kts 278°
2026-05-03 22:11 59.87955 -141.30723 38331 ft 367 kts 278°
2026-05-03 22:12 59.89288 -141.40551 38333 ft 367 kts 278°
2026-05-03 22:12 59.90601 -141.50311 38324 ft 367 kts 278°
2026-05-03 22:13 59.91918 -141.60148 38356 ft 367 kts 277°
2026-05-03 22:13 59.93229 -141.70009 38326 ft 369 kts 277°
2026-05-03 22:14 59.94540 -141.79926 38320 ft 369 kts 277°
2026-05-03 22:14 59.95843 -141.89847 38304 ft 369 kts 277°
2026-05-03 22:15 59.97136 -141.99761 38307 ft 369 kts 277°
2026-05-03 22:15 59.98424 -142.09697 38305 ft 369 kts 277°
2026-05-03 22:16 59.99703 -142.19631 38284 ft 369 kts 277°
2026-05-03 22:16 60.00969 -142.29529 38295 ft 370 kts 277°
2026-05-03 22:17 60.02237 -142.39521 38290 ft 371 kts 277°
2026-05-03 22:17 60.03500 -142.49530 38289 ft 372 kts 276°
2026-05-03 22:18 60.04762 -142.59596 38289 ft 372 kts 276°
2026-05-03 22:18 60.06013 -142.69641 38282 ft 372 kts 276°
2026-05-03 22:19 60.07257 -142.79700 38286 ft 372 kts 276°
2026-05-03 22:19 60.08483 -142.89689 38281 ft 372 kts 276°
2026-05-03 22:20 60.09711 -142.99760 38285 ft 373 kts 276°
2026-05-03 22:20 60.10937 -143.09892 38281 ft 374 kts 276°
2026-05-03 22:21 60.12157 -143.20038 38281 ft 374 kts 276°
2026-05-03 22:21 60.13369 -143.30182 38278 ft 374 kts 276°
2026-05-03 22:22 60.14565 -143.40275 38277 ft 374 kts 276°
2026-05-03 22:22 60.15759 -143.50424 38285 ft 373 kts 276°
2026-05-03 22:23 60.16945 -143.60575 38265 ft 373 kts 275°
2026-05-03 22:23 60.18125 -143.70748 38268 ft 373 kts 275°
2026-05-03 22:24 60.19294 -143.80901 38265 ft 373 kts 275°
2026-05-03 22:24 60.20447 -143.90987 38271 ft 373 kts 275°
2026-05-03 22:25 60.21601 -144.01170 38275 ft 373 kts 275°
2026-05-03 22:25 60.22748 -144.11355 38270 ft 374 kts 275°
2026-05-03 22:26 60.23889 -144.21565 38270 ft 373 kts 275°
2026-05-03 22:26 60.25020 -144.31778 38312 ft 373 kts 275°
2026-05-03 22:27 60.26139 -144.41938 38270 ft 374 kts 275°
2026-05-03 22:27 60.27258 -144.52178 38274 ft 373 kts 274°
2026-05-03 22:28 60.28372 -144.62431 38277 ft 375 kts 275°
2026-05-03 22:28 60.29480 -144.72747 38269 ft 375 kts 275°
2026-05-03 22:29 60.30571 -144.82982 38262 ft 375 kts 274°
2026-05-03 22:29 60.31661 -144.93271 38257 ft 374 kts 274°
2026-05-03 22:30 60.32737 -145.03523 38306 ft 373 kts 273°
2026-05-03 22:30 60.33806 -145.13798 38272 ft 375 kts 273°
2026-05-03 22:31 60.34871 -145.24109 38254 ft 375 kts 273°
2026-05-03 22:31 60.35925 -145.34385 38261 ft 375 kts 273°
2026-05-03 22:32 60.36973 -145.44691 38262 ft 375 kts 273°
2026-05-03 22:32 60.38015 -145.55023 38259 ft 375 kts 273°
2026-05-03 22:33 60.39047 -145.65355 38253 ft 375 kts 273°
2026-05-03 22:33 60.40070 -145.75672 38265 ft 376 kts 272°
2026-05-03 22:34 60.41092 -145.86081 38246 ft 377 kts 272°
2026-05-03 22:34 60.42102 -145.96436 38240 ft 377 kts 272°
2026-05-03 22:35 60.43108 -146.06842 38246 ft 377 kts 272°
2026-05-03 22:35 60.44110 -146.17300 38247 ft 377 kts 272°
2026-05-03 22:36 60.45100 -146.27726 38250 ft 377 kts 272°
2026-05-03 22:36 60.46086 -146.38207 38247 ft 378 kts 272°
2026-05-03 22:37 60.47058 -146.48612 38233 ft 379 kts 272°
2026-05-03 22:37 60.48034 -146.59140 38233 ft 380 kts 273°
2026-05-03 22:38 60.49551 -146.69576 38229 ft 389 kts 279°
2026-05-03 22:38 60.51038 -146.78201 38235 ft 389 kts 279°
2026-05-03 22:39 60.52811 -146.88594 38192 ft 388 kts 278°
2026-05-03 22:39 60.54532 -146.98989 38216 ft 387 kts 278°
2026-05-03 22:40 60.56216 -147.09320 38280 ft 387 kts 278°
2026-05-03 22:40 60.57901 -147.19765 38237 ft 389 kts 278°
2026-05-03 22:41 60.59587 -147.30269 38229 ft 390 kts 278°
2026-05-03 22:41 60.61266 -147.40791 38212 ft 391 kts 278°
2026-05-03 22:42 60.62938 -147.51330 38207 ft 391 kts 277°
2026-05-03 22:42 60.64594 -147.61838 37837 ft 397 kts 277°
2026-05-03 22:42 60.65433 -147.67190 37277 ft 393 kts 277°
2026-05-03 22:43 60.66266 -147.72488 36612 ft 390 kts 277°
2026-05-03 22:43 60.67088 -147.77741 35916 ft 388 kts 276°
2026-05-03 22:43 60.67904 -147.82997 35111 ft 389 kts 276°
2026-05-03 22:43 60.68720 -147.88270 34296 ft 390 kts 275°
2026-05-03 22:44 60.69538 -147.93571 33325 ft 391 kts 275°
2026-05-03 22:44 60.70354 -147.98868 32409 ft 392 kts 276°
2026-05-03 22:44 60.71169 -148.04181 31460 ft 393 kts 277°
2026-05-03 22:44 60.71991 -148.09548 30579 ft 396 kts 277°
2026-05-03 22:45 60.72796 -148.14799 29878 ft 391 kts 277°
2026-05-03 22:45 60.73602 -148.20068 29133 ft 386 kts 278°
2026-05-03 22:45 60.74395 -148.25277 28385 ft 380 kts 277°
2026-05-03 22:45 60.75170 -148.30440 27563 ft 380 kts 277°
2026-05-03 22:46 60.75938 -148.35577 26844 ft 376 kts 278°
2026-05-03 22:46 60.76697 -148.40677 26226 ft 373 kts 277°
2026-05-03 22:46 60.77451 -148.45761 25542 ft 371 kts 277°
2026-05-03 22:46 60.78197 -148.50801 24890 ft 368 kts 277°
2026-05-03 22:47 60.78935 -148.55804 24234 ft 366 kts 277°
2026-05-03 22:47 60.79671 -148.60813 23540 ft 365 kts 277°
2026-05-03 22:47 60.80399 -148.65763 22795 ft 362 kts 278°
2026-05-03 22:47 60.81119 -148.70669 22145 ft 358 kts 278°
2026-05-03 22:48 60.81828 -148.75499 21493 ft 356 kts 278°
2026-05-03 22:48 60.82540 -148.80395 20845 ft 353 kts 278°
2026-05-03 22:48 60.83226 -148.85129 20218 ft 349 kts 279°
2026-05-03 22:48 60.83923 -148.89883 19612 ft 347 kts 277°
2026-05-03 22:49 60.84600 -148.94625 18954 ft 345 kts 278°
2026-05-03 22:49 60.85274 -148.99334 18291 ft 344 kts 278°
2026-05-03 22:49 60.85945 -149.04023 17593 ft 341 kts 279°
2026-05-03 22:49 60.86613 -149.08682 16969 ft 339 kts 279°
2026-05-03 22:50 60.87276 -149.13329 16305 ft 337 kts 279°
2026-05-03 22:50 60.87929 -149.17953 15666 ft 340 kts 279°
2026-05-03 22:50 60.88607 -149.22635 15065 ft 343 kts 283°
2026-05-03 22:50 60.89481 -149.27248 14736 ft 352 kts 287°
2026-05-03 22:51 60.90471 -149.31855 14332 ft 360 kts 289°
2026-05-03 22:51 60.91508 -149.36564 13827 ft 365 kts 289°
2026-05-03 22:51 60.92549 -149.41337 13269 ft 364 kts 289°
2026-05-03 22:51 60.93563 -149.46052 12807 ft 359 kts 289°
2026-05-03 22:52 60.94555 -149.50727 12377 ft 353 kts 289°
2026-05-03 22:52 60.95523 -149.55343 11973 ft 350 kts 289°
2026-05-03 22:52 60.96485 -149.59955 11576 ft 349 kts 289°
2026-05-03 22:52 60.97435 -149.64521 11169 ft 342 kts 290°
2026-05-03 22:53 60.98356 -149.68959 10769 ft 333 kts 290°
2026-05-03 22:53 60.99264 -149.73295 10394 ft 326 kts 294°
2026-05-03 22:53 61.00589 -149.77029 10008 ft 323 kts 317°
2026-05-03 22:53 61.02294 -149.79915 9905 ft 308 kts 321°
2026-05-03 22:54 61.03912 -149.82553 9883 ft 293 kts 321°
2026-05-03 22:54 61.05477 -149.85139 9656 ft 285 kts 320°
2026-05-03 22:54 61.07016 -149.87713 9239 ft 285 kts 320°
2026-05-03 22:54 61.08549 -149.90292 8853 ft 284 kts 320°
2026-05-03 22:55 61.09913 -149.93193 8438 ft 282 kts 298°
2026-05-03 22:55 61.10509 -149.96997 8064 ft 277 kts 273°
2026-05-03 22:55 61.10540 -150.00951 7703 ft 274 kts 266°
2026-05-03 22:55 61.10475 -150.04885 7304 ft 274 kts 265°
2026-05-03 22:56 61.10402 -150.08823 6924 ft 274 kts 265°
2026-05-03 22:56 61.10336 -150.12702 6486 ft 276 kts 265°
2026-05-03 22:56 61.10278 -150.16680 6084 ft 275 kts 266°
2026-05-03 22:56 61.10225 -150.20624 5735 ft 272 kts 267°
2026-05-03 22:57 61.10174 -150.24507 5403 ft 267 kts 268°
2026-05-03 22:57 61.10125 -150.28279 5101 ft 260 kts 268°
2026-05-03 22:57 61.10131 -150.31964 4971 ft 250 kts 279°
2026-05-03 22:57 61.10820 -150.35074 4964 ft 231 kts 313°
2026-05-03 22:58 61.12024 -150.37043 4953 ft 213 kts 335°
2026-05-03 22:58 61.13391 -150.37979 4970 ft 204 kts 352°
2026-05-03 22:58 61.14779 -150.38333 4957 ft 203 kts
2026-05-03 22:58 61.16012 -150.37169 4971 ft 194 kts 47°
2026-05-03 22:59 61.16678 -150.34814 4974 ft 185 kts 79°
2026-05-03 22:59 61.16761 -150.32259 4926 ft 173 kts 89°
2026-05-03 22:59 61.16768 -150.29723 4338 ft 179 kts 90°
2026-05-03 22:59 61.16746 -150.27120 3690 ft 180 kts 90°
2026-05-03 23:00 61.16721 -150.24575 3219 ft 167 kts 89°
2026-05-03 23:00 61.16725 -150.22316 2766 ft 152 kts 88°
2026-05-03 23:00 61.16737 -150.20139 2216 ft 149 kts 86°
2026-05-03 23:00 61.16767 -150.18033 1770 ft 141 kts 86°
2026-05-03 23:01 61.16790 -150.16081 1447 ft 130 kts 87°
2026-05-03 23:01 61.16780 -150.14235 1062 ft 128 kts 89°
2026-05-03 23:01 61.16767 -150.12425 853 ft 126 kts 88°
2026-05-03 23:01 61.16778 -150.10617 753 ft 127 kts 86°
2026-05-03 23:02 61.16801 -150.08760 681 ft 130 kts 89°
2026-05-03 23:02 61.16769 -150.06846 461 ft 133 kts 90°
2026-05-03 23:02 61.16777 -150.04867 267 ft 142 kts 88°
2026-05-03 23:02 61.16789 -150.02872 142 ft 131 kts 89°
2026-05-03 23:03 61.16784 -150.01227 134 ft 88 kts 90°
2026-05-03 23:03 61.16780 -150.00326 131 ft 51 kts 91°
2026-05-03 23:03 61.16787 -149.99611 127 ft 48 kts 90°
2026-05-03 23:03 61.16789 -149.99130 124 ft 27 kts 90°
2026-05-03 23:04 61.16791 -149.98759 121 ft 19 kts 83°
2026-05-03 23:04 61.16820 -149.98529 114 ft 16 kts 41°
2026-05-03 23:04 61.16884 -149.98522 112 ft 1 kts 341°
2026-05-03 23:04 61.16890 -149.98527 114 ft 1 kts 341°
2026-05-03 23:05 61.16965 -149.98578 113 ft 19 kts 341°
2026-05-03 23:05 61.17103 -149.98662 112 ft 21 kts 346°
2026-05-03 23:05 61.17196 -149.98700 111 ft 0 kts 353°
2026-05-03 23:05 61.17210 -149.98703 109 ft 5 kts 352°
2026-05-03 23:06 61.17253 -149.98704 111 ft 5 kts
2026-05-03 23:06 61.17283 -149.98667 110 ft 5 kts 68°
2026-05-03 23:06 61.17278 -149.98617 111 ft 3 kts 104°
2026-05-03 23:06 61.17274 -149.98588 111 ft 2 kts 107°
2026-05-03 23:07 61.17270 -149.98562 110 ft 2 kts 108°
2026-05-03 23:07 61.17269 -149.98555 110 ft 0 kts 108°